Year,Month,Day,Hour,Minute,Value (Times are PST for temperature in C)
2010,02,22,00,00,4.00
2010,02,22,00,01,4.00
2010,02,22,00,02,4.00
2010,02,22,00,03,4.10
2010,02,22,00,04,4.20
2010,02,22,00,05,4.10
2010,02,22,00,06,4.10
2010,02,22,00,07,4.10
2010,02,22,00,08,4.10
2010,02,22,00,09,4.00
2010,02,22,00,10,4.00
2010,02,22,00,11,4.00
2010,02,22,00,12,4.00
2010,02,22,00,13,3.90
2010,02,22,00,14,3.90
2010,02,22,00,15,4.00
2010,02,22,00,16,4.00
2010,02,22,00,17,3.90
2010,02,22,00,18,3.90
2010,02,22,00,19,3.90
2010,02,22,00,20,3.90
2010,02,22,00,21,3.90
2010,02,22,00,22,3.90
2010,02,22,00,23,3.90
2010,02,22,00,24,4.00
2010,02,22,00,25,4.00
2010,02,22,00,26,4.00
2010,02,22,00,27,4.00
2010,02,22,00,28,4.00
2010,02,22,00,29,4.00
2010,02,22,00,30,4.00
2010,02,22,00,31,3.90
2010,02,22,00,32,3.80
2010,02,22,00,33,3.60
2010,02,22,00,34,3.50
2010,02,22,00,35,3.30
2010,02,22,00,36,3.30
2010,02,22,00,37,3.20
2010,02,22,00,38,3.10
2010,02,22,00,39,3.00
2010,02,22,00,40,2.90
2010,02,22,00,41,2.90
2010,02,22,00,42,2.80
2010,02,22,00,43,2.80
2010,02,22,00,44,2.70
2010,02,22,00,45,2.70
2010,02,22,00,46,2.70
2010,02,22,00,47,2.70
2010,02,22,00,48,2.70
2010,02,22,00,49,2.70
2010,02,22,00,50,2.60
2010,02,22,00,51,2.50
2010,02,22,00,52,2.50
2010,02,22,00,53,2.40
2010,02,22,00,54,2.40
2010,02,22,00,55,2.40
2010,02,22,00,56,2.40
2010,02,22,00,57,2.40
2010,02,22,00,58,2.40
2010,02,22,00,59,2.40
2010,02,22,01,00,2.40
2010,02,22,01,01,2.40
2010,02,22,01,02,2.40
2010,02,22,01,03,2.40
2010,02,22,01,04,2.30
2010,02,22,01,05,2.30
2010,02,22,01,06,2.20
2010,02,22,01,07,2.20
2010,02,22,01,08,2.10
2010,02,22,01,09,2.00
2010,02,22,01,10,1.90
2010,02,22,01,11,1.90
2010,02,22,01,12,1.80
2010,02,22,01,13,1.80
2010,02,22,01,14,1.80
2010,02,22,01,15,1.70
2010,02,22,01,16,1.70
2010,02,22,01,17,1.70
2010,02,22,01,18,1.70
2010,02,22,01,19,1.70
2010,02,22,01,20,1.60
2010,02,22,01,21,1.60
2010,02,22,01,22,1.50
2010,02,22,01,23,1.40
2010,02,22,01,24,1.40
2010,02,22,01,25,1.30
2010,02,22,01,26,1.30
2010,02,22,01,27,1.30
2010,02,22,01,28,1.30
2010,02,22,01,29,1.30
2010,02,22,01,30,1.30
2010,02,22,01,31,1.30
2010,02,22,01,32,1.30
2010,02,22,01,33,1.30
2010,02,22,01,34,1.30
2010,02,22,01,35,1.30
2010,02,22,01,36,1.30
2010,02,22,01,37,1.30
2010,02,22,01,38,1.30
2010,02,22,01,39,1.30
2010,02,22,01,40,1.30
2010,02,22,01,41,1.30
2010,02,22,01,42,1.30
2010,02,22,01,43,1.30
2010,02,22,01,44,1.30
2010,02,22,01,45,1.30
2010,02,22,01,46,1.30
2010,02,22,01,47,1.30
2010,02,22,01,48,1.30
2010,02,22,01,49,1.20
2010,02,22,01,50,1.20
2010,02,22,01,51,1.20
2010,02,22,01,52,1.10
2010,02,22,01,53,1.10
2010,02,22,01,54,1.00
2010,02,22,01,55,1.00
2010,02,22,01,56,0.90
2010,02,22,01,57,0.90
2010,02,22,01,58,0.90
2010,02,22,01,59,0.90
2010,02,22,02,00,0.90
2010,02,22,02,01,0.80
2010,02,22,02,02,0.80
2010,02,22,02,03,0.80
2010,02,22,02,04,0.80
2010,02,22,02,05,0.80
2010,02,22,02,06,0.80
2010,02,22,02,07,0.80
2010,02,22,02,08,0.80
2010,02,22,02,09,0.80
2010,02,22,02,10,0.80
2010,02,22,02,11,0.80
2010,02,22,02,12,0.80
2010,02,22,02,13,0.80
2010,02,22,02,14,0.80
2010,02,22,02,15,0.80
2010,02,22,02,16,0.80
2010,02,22,02,17,0.80
2010,02,22,02,18,0.70
2010,02,22,02,19,0.70
2010,02,22,02,20,0.70
2010,02,22,02,21,0.70
2010,02,22,02,22,0.60
2010,02,22,02,23,0.60
2010,02,22,02,24,0.60
2010,02,22,02,25,0.50
2010,02,22,02,26,0.50
2010,02,22,02,27,0.50
2010,02,22,02,28,0.50
2010,02,22,02,29,0.40
2010,02,22,02,30,0.40
2010,02,22,02,31,0.40
2010,02,22,02,32,0.40
2010,02,22,02,33,0.50
2010,02,22,02,34,0.50
2010,02,22,02,35,0.50
2010,02,22,02,36,0.60
2010,02,22,02,37,0.60
2010,02,22,02,38,0.60
2010,02,22,02,39,0.60
2010,02,22,02,40,0.60
2010,02,22,02,41,0.50
2010,02,22,02,42,0.50
2010,02,22,02,43,0.50
2010,02,22,02,44,0.50
2010,02,22,02,45,0.50
2010,02,22,02,46,0.40
2010,02,22,02,47,0.40
2010,02,22,02,48,0.30
2010,02,22,02,49,0.20
2010,02,22,02,50,0.20
2010,02,22,02,51,0.10
2010,02,22,02,52,0.10
2010,02,22,02,53,0.10
2010,02,22,02,54,0.10
2010,02,22,02,55,0.20
2010,02,22,02,56,0.20
2010,02,22,02,57,0.30
2010,02,22,02,58,0.30
2010,02,22,02,59,0.30
2010,02,22,03,00,0.30
2010,02,22,03,01,0.30
2010,02,22,03,02,0.30
2010,02,22,03,03,0.30
2010,02,22,03,04,0.30
2010,02,22,03,05,0.40
2010,02,22,03,06,0.40
2010,02,22,03,07,0.50
2010,02,22,03,08,0.60
2010,02,22,03,09,0.60
2010,02,22,03,10,0.70
2010,02,22,03,11,0.70
2010,02,22,03,12,0.80
2010,02,22,03,13,0.90
2010,02,22,03,14,1.00
2010,02,22,03,15,1.00
2010,02,22,03,16,1.00
2010,02,22,03,17,1.00
2010,02,22,03,18,1.10
2010,02,22,03,19,1.10
2010,02,22,03,20,1.00
2010,02,22,03,21,1.00
2010,02,22,03,22,1.00
2010,02,22,03,23,1.10
2010,02,22,03,24,1.10
2010,02,22,03,25,1.10
2010,02,22,03,26,1.00
2010,02,22,03,27,1.00
2010,02,22,03,28,1.00
2010,02,22,03,29,1.10
2010,02,22,03,30,1.30
2010,02,22,03,31,1.50
2010,02,22,03,32,1.70
2010,02,22,03,33,1.80
2010,02,22,03,34,2.00
2010,02,22,03,35,2.00
2010,02,22,03,36,2.10
2010,02,22,03,37,2.10
2010,02,22,03,38,2.00
2010,02,22,03,39,2.00
2010,02,22,03,40,1.90
2010,02,22,03,41,1.90
2010,02,22,03,42,2.00
2010,02,22,03,43,2.00
2010,02,22,03,44,2.00
2010,02,22,03,45,2.00
2010,02,22,03,46,2.10
2010,02,22,03,47,2.10
2010,02,22,03,48,2.10
2010,02,22,03,49,2.10
2010,02,22,03,50,2.10
2010,02,22,03,51,2.20
2010,02,22,03,52,2.20
2010,02,22,03,53,2.20
2010,02,22,03,54,2.20
2010,02,22,03,55,2.20
2010,02,22,03,56,2.20
2010,02,22,03,57,2.20
2010,02,22,03,58,2.30
2010,02,22,03,59,2.40
2010,02,22,04,00,2.50
2010,02,22,04,01,2.60
2010,02,22,04,02,2.60
2010,02,22,04,03,2.70
2010,02,22,04,04,2.70
2010,02,22,04,05,2.70
2010,02,22,04,06,2.70
2010,02,22,04,07,2.70
2010,02,22,04,08,2.70
2010,02,22,04,09,2.70
2010,02,22,04,10,2.80
2010,02,22,04,11,2.80
2010,02,22,04,12,2.80
2010,02,22,04,13,2.80
2010,02,22,04,14,2.80
2010,02,22,04,15,2.80
2010,02,22,04,16,2.80
2010,02,22,04,17,2.80
2010,02,22,04,18,2.80
2010,02,22,04,19,2.90
2010,02,22,04,20,2.90
2010,02,22,04,21,2.90
2010,02,22,04,22,2.80
2010,02,22,04,23,2.80
2010,02,22,04,24,2.70
2010,02,22,04,25,2.70
2010,02,22,04,26,2.60
2010,02,22,04,27,2.60
2010,02,22,04,28,2.50
2010,02,22,04,29,2.50
2010,02,22,04,30,2.40
2010,02,22,04,31,2.40
2010,02,22,04,32,2.40
2010,02,22,04,33,2.40
2010,02,22,04,34,2.40
2010,02,22,04,35,2.30
2010,02,22,04,36,2.20
2010,02,22,04,37,2.20
2010,02,22,04,38,2.20
2010,02,22,04,39,2.10
2010,02,22,04,40,2.10
2010,02,22,04,41,2.10
2010,02,22,04,42,2.10
2010,02,22,04,43,2.20
2010,02,22,04,44,2.20
2010,02,22,04,45,2.20
2010,02,22,04,46,2.30
2010,02,22,04,47,2.30
2010,02,22,04,48,2.30
2010,02,22,04,49,2.30
2010,02,22,04,50,2.30
2010,02,22,04,51,2.30
2010,02,22,04,52,2.20
2010,02,22,04,53,2.20
2010,02,22,04,54,2.20
2010,02,22,04,55,2.20
2010,02,22,04,56,2.20
2010,02,22,04,57,2.30
2010,02,22,04,58,2.30
2010,02,22,04,59,2.20
2010,02,22,05,00,2.20
2010,02,22,05,01,2.20
2010,02,22,05,02,2.10
2010,02,22,05,03,2.00
2010,02,22,05,04,2.00
2010,02,22,05,05,2.00
2010,02,22,05,06,2.00
2010,02,22,05,07,2.10
2010,02,22,05,08,2.20
2010,02,22,05,09,2.30
2010,02,22,05,10,2.40
2010,02,22,05,11,2.50
2010,02,22,05,12,2.50
2010,02,22,05,13,2.60
2010,02,22,05,14,2.70
2010,02,22,05,15,2.70
2010,02,22,05,16,2.80
2010,02,22,05,17,2.90
2010,02,22,05,18,2.90
2010,02,22,05,19,3.00
2010,02,22,05,20,3.10
2010,02,22,05,21,3.10
2010,02,22,05,22,3.10
2010,02,22,05,23,3.10
2010,02,22,05,24,3.10
2010,02,22,05,25,3.10
2010,02,22,05,26,3.10
2010,02,22,05,27,3.10
2010,02,22,05,28,3.10
2010,02,22,05,29,3.10
2010,02,22,05,30,3.00
2010,02,22,05,31,2.90
2010,02,22,05,32,2.90
2010,02,22,05,33,2.90
2010,02,22,05,34,2.90
2010,02,22,05,35,2.90
2010,02,22,05,36,2.90
2010,02,22,05,37,2.90
2010,02,22,05,38,2.90
2010,02,22,05,39,2.90
2010,02,22,05,40,2.90
2010,02,22,05,41,2.90
2010,02,22,05,42,2.90
2010,02,22,05,43,2.90
2010,02,22,05,44,2.90
2010,02,22,05,45,2.90
2010,02,22,05,46,2.90
2010,02,22,05,47,2.90
2010,02,22,05,48,2.90
2010,02,22,05,49,2.90
2010,02,22,05,50,2.90
2010,02,22,05,51,2.90
2010,02,22,05,52,2.90
2010,02,22,05,53,2.90
2010,02,22,05,54,2.90
2010,02,22,05,55,2.80
2010,02,22,05,56,2.80
2010,02,22,05,57,2.70
2010,02,22,05,58,2.70
2010,02,22,05,59,2.60
2010,02,22,06,00,2.50
2010,02,22,06,01,2.50
2010,02,22,06,02,2.40
2010,02,22,06,03,2.40
2010,02,22,06,04,2.30
2010,02,22,06,05,2.30
2010,02,22,06,06,2.30
2010,02,22,06,07,2.20
2010,02,22,06,08,2.20
2010,02,22,06,09,2.20
2010,02,22,06,10,2.10
2010,02,22,06,11,2.10
2010,02,22,06,12,2.00
2010,02,22,06,13,2.00
2010,02,22,06,14,1.90
2010,02,22,06,15,1.80
2010,02,22,06,16,1.80
2010,02,22,06,17,1.70
2010,02,22,06,18,1.70
2010,02,22,06,19,1.60
2010,02,22,06,20,1.50
2010,02,22,06,21,1.50
2010,02,22,06,22,1.40
2010,02,22,06,23,1.40
2010,02,22,06,24,1.30
2010,02,22,06,25,1.30
2010,02,22,06,26,1.30
2010,02,22,06,27,1.20
2010,02,22,06,28,1.20
2010,02,22,06,29,1.20
2010,02,22,06,30,1.10
2010,02,22,06,31,1.10
2010,02,22,06,32,1.10
2010,02,22,06,33,1.10
2010,02,22,06,34,1.20
2010,02,22,06,35,1.20
2010,02,22,06,36,1.30
2010,02,22,06,37,1.30
2010,02,22,06,38,1.30
2010,02,22,06,39,1.40
2010,02,22,06,40,1.40
2010,02,22,06,41,1.30
2010,02,22,06,42,1.30
2010,02,22,06,43,1.30
2010,02,22,06,44,1.20
2010,02,22,06,45,1.20
2010,02,22,06,46,1.10
2010,02,22,06,47,1.10
2010,02,22,06,48,1.10
2010,02,22,06,49,1.10
2010,02,22,06,50,1.10
2010,02,22,06,51,1.10
2010,02,22,06,52,1.10
2010,02,22,06,53,1.10
2010,02,22,06,54,1.10
2010,02,22,06,55,1.10
2010,02,22,06,56,1.10
2010,02,22,06,57,1.00
2010,02,22,06,58,1.00
2010,02,22,06,59,0.90
2010,02,22,07,00,0.80
2010,02,22,07,01,0.80
2010,02,22,07,02,0.80
2010,02,22,07,03,0.70
2010,02,22,07,04,0.70
2010,02,22,07,05,0.60
2010,02,22,07,06,0.60
2010,02,22,07,07,0.60
2010,02,22,07,08,0.60
2010,02,22,07,09,0.60
2010,02,22,07,10,0.50
2010,02,22,07,11,0.50
2010,02,22,07,12,0.50
2010,02,22,07,13,0.50
2010,02,22,07,14,0.50
2010,02,22,07,15,0.60
2010,02,22,07,16,0.60
2010,02,22,07,17,0.70
2010,02,22,07,18,0.70
2010,02,22,07,19,0.80
2010,02,22,07,20,0.80
2010,02,22,07,21,0.80
2010,02,22,07,22,0.80
2010,02,22,07,23,0.80
2010,02,22,07,24,0.80
2010,02,22,07,25,0.80
2010,02,22,07,26,0.80
2010,02,22,07,27,0.80
2010,02,22,07,28,0.80
2010,02,22,07,29,0.80
2010,02,22,07,30,0.80
2010,02,22,07,31,0.70
2010,02,22,07,32,0.70
2010,02,22,07,33,0.70
2010,02,22,07,34,0.70
2010,02,22,07,35,0.70
2010,02,22,07,36,0.70
2010,02,22,07,37,0.70
2010,02,22,07,38,0.70
2010,02,22,07,39,0.80
2010,02,22,07,40,0.80
2010,02,22,07,41,0.80
2010,02,22,07,42,0.80
2010,02,22,07,43,0.80
2010,02,22,07,44,0.80
2010,02,22,07,45,0.90
2010,02,22,07,46,0.90
2010,02,22,07,47,1.00
2010,02,22,07,48,1.00
2010,02,22,07,49,1.10
2010,02,22,07,50,1.10
2010,02,22,07,51,1.10
2010,02,22,07,52,1.20
2010,02,22,07,53,1.30
2010,02,22,07,54,1.40
2010,02,22,07,55,1.50
2010,02,22,07,56,1.50
2010,02,22,07,57,1.60
2010,02,22,07,58,1.70
2010,02,22,07,59,1.90
2010,02,22,08,00,2.20
2010,02,22,08,01,2.50
2010,02,22,08,02,2.70
2010,02,22,08,03,2.80
2010,02,22,08,04,3.00
2010,02,22,08,05,3.20
2010,02,22,08,06,3.30
2010,02,22,08,07,3.30
2010,02,22,08,08,3.30
2010,02,22,08,09,3.30
2010,02,22,08,10,3.40
2010,02,22,08,11,3.50
2010,02,22,08,12,3.70
2010,02,22,08,13,3.80
2010,02,22,08,14,4.00
2010,02,22,08,15,4.20
2010,02,22,08,16,4.40
2010,02,22,08,17,4.60
2010,02,22,08,18,4.70
2010,02,22,08,19,4.90
2010,02,22,08,20,4.90
2010,02,22,08,21,4.90
2010,02,22,08,22,4.90
2010,02,22,08,23,4.90
2010,02,22,08,24,5.10
2010,02,22,08,25,5.10
2010,02,22,08,26,5.10
2010,02,22,08,27,5.20
2010,02,22,08,28,5.20
2010,02,22,08,29,5.20
2010,02,22,08,30,5.20
2010,02,22,08,31,5.30
2010,02,22,08,32,5.30
2010,02,22,08,33,5.30
2010,02,22,08,34,5.30
2010,02,22,08,35,5.30
2010,02,22,08,36,5.40
2010,02,22,08,37,5.50
2010,02,22,08,38,5.60
2010,02,22,08,39,5.70
2010,02,22,08,40,5.80
2010,02,22,08,41,5.90
2010,02,22,08,42,5.90
2010,02,22,08,43,6.00
2010,02,22,08,44,6.00
2010,02,22,08,45,6.10
2010,02,22,08,46,6.20
2010,02,22,08,47,6.30
2010,02,22,08,48,6.50
2010,02,22,08,49,6.60
2010,02,22,08,50,6.70
2010,02,22,08,51,6.70
2010,02,22,08,52,6.60
2010,02,22,08,53,6.60
2010,02,22,08,54,6.60
2010,02,22,08,55,6.60
2010,02,22,08,56,6.60
2010,02,22,08,57,6.40
2010,02,22,08,58,6.40
2010,02,22,08,59,6.40
2010,02,22,09,00,6.40
2010,02,22,09,01,6.30
2010,02,22,09,02,6.30
2010,02,22,09,03,6.30
2010,02,22,09,04,6.30
2010,02,22,09,05,6.40
2010,02,22,09,06,6.40
2010,02,22,09,07,6.50
2010,02,22,09,08,6.70
2010,02,22,09,09,6.80
2010,02,22,09,10,6.80
2010,02,22,09,11,6.90
2010,02,22,09,12,6.80
2010,02,22,09,13,6.80
2010,02,22,09,14,6.70
2010,02,22,09,15,6.60
2010,02,22,09,16,6.50
2010,02,22,09,17,6.40
2010,02,22,09,18,6.40
2010,02,22,09,19,6.40
2010,02,22,09,20,6.40
2010,02,22,09,21,6.40
2010,02,22,09,22,6.40
2010,02,22,09,23,6.40
2010,02,22,09,24,6.40
2010,02,22,09,25,6.40
2010,02,22,09,26,6.40
2010,02,22,09,27,6.40
2010,02,22,09,28,6.40
2010,02,22,09,29,6.40
2010,02,22,09,30,6.60
2010,02,22,09,31,6.60
2010,02,22,09,32,6.60
2010,02,22,09,33,6.60
2010,02,22,09,34,6.60
2010,02,22,09,35,6.60
2010,02,22,09,36,6.60
2010,02,22,09,37,6.50
2010,02,22,09,38,6.50
2010,02,22,09,39,6.40
2010,02,22,09,40,6.40
2010,02,22,09,41,6.40
2010,02,22,09,42,6.40
2010,02,22,09,43,6.40
2010,02,22,09,44,6.40
2010,02,22,09,45,6.60
2010,02,22,09,46,6.60
2010,02,22,09,47,6.70
2010,02,22,09,48,6.80
2010,02,22,09,49,6.80
2010,02,22,09,50,6.80
2010,02,22,09,51,6.90
2010,02,22,09,52,6.90
2010,02,22,09,53,6.90
2010,02,22,09,54,6.90
2010,02,22,09,55,6.80
2010,02,22,09,56,6.80
2010,02,22,09,57,6.80
2010,02,22,09,58,6.80
2010,02,22,09,59,6.80
2010,02,22,10,00,6.90
2010,02,22,10,01,6.90
2010,02,22,10,02,6.90
2010,02,22,10,03,6.80
2010,02,22,10,04,6.80
2010,02,22,10,05,7.00
2010,02,22,10,06,7.10
2010,02,22,10,07,7.10
2010,02,22,10,08,7.10
2010,02,22,10,09,7.10
2010,02,22,10,10,7.00
2010,02,22,10,11,7.00
2010,02,22,10,12,7.00
2010,02,22,10,13,7.00
2010,02,22,10,14,7.10
2010,02,22,10,15,7.10
2010,02,22,10,16,7.10
2010,02,22,10,17,7.20
2010,02,22,10,18,7.20
2010,02,22,10,19,7.30
2010,02,22,10,20,7.30
2010,02,22,10,21,7.40
2010,02,22,10,22,7.60
2010,02,22,10,23,7.70
2010,02,22,10,24,7.60
2010,02,22,10,25,7.60
2010,02,22,10,26,7.60
2010,02,22,10,27,7.60
2010,02,22,10,28,7.60
2010,02,22,10,29,7.70
2010,02,22,10,30,7.70
2010,02,22,10,31,7.80
2010,02,22,10,32,7.80
2010,02,22,10,33,7.90
2010,02,22,10,34,8.00
2010,02,22,10,35,8.00
2010,02,22,10,36,8.00
2010,02,22,10,37,8.10
2010,02,22,10,38,8.10
2010,02,22,10,39,8.10
2010,02,22,10,40,8.20
2010,02,22,10,41,8.20
2010,02,22,10,42,8.20
2010,02,22,10,43,8.20
2010,02,22,10,44,8.20
2010,02,22,10,45,8.20
2010,02,22,10,46,8.20
2010,02,22,10,47,8.30
2010,02,22,10,48,8.40
2010,02,22,10,49,8.50
2010,02,22,10,50,8.60
2010,02,22,10,51,8.70
2010,02,22,10,52,8.70
2010,02,22,10,53,8.70
2010,02,22,10,54,8.70
2010,02,22,10,55,8.60
2010,02,22,10,56,8.60
2010,02,22,10,57,8.60
2010,02,22,10,58,8.50
2010,02,22,10,59,8.40
2010,02,22,11,00,8.40
2010,02,22,11,01,8.40
2010,02,22,11,02,8.50
2010,02,22,11,03,8.70
2010,02,22,11,04,8.70
2010,02,22,11,05,8.70
2010,02,22,11,06,8.80
2010,02,22,11,07,8.90
2010,02,22,11,08,9.00
2010,02,22,11,09,9.00
2010,02,22,11,10,9.10
2010,02,22,11,11,9.00
2010,02,22,11,12,9.00
2010,02,22,11,13,8.80
2010,02,22,11,14,8.80
2010,02,22,11,15,8.80
2010,02,22,11,16,8.80
2010,02,22,11,17,8.70
2010,02,22,11,18,8.70
2010,02,22,11,19,8.70
2010,02,22,11,20,8.60
2010,02,22,11,21,8.60
2010,02,22,11,22,8.60
2010,02,22,11,23,8.70
2010,02,22,11,24,8.70
2010,02,22,11,25,8.80
2010,02,22,11,26,8.90
2010,02,22,11,27,9.00
2010,02,22,11,28,9.10
2010,02,22,11,29,9.20
2010,02,22,11,30,9.30
2010,02,22,11,31,9.40
2010,02,22,11,32,9.30
2010,02,22,11,33,9.20
2010,02,22,11,34,9.10
2010,02,22,11,35,9.00
2010,02,22,11,36,8.80
2010,02,22,11,37,8.80
2010,02,22,11,38,8.80
2010,02,22,11,39,8.80
2010,02,22,11,40,8.70
2010,02,22,11,41,8.70
2010,02,22,11,42,8.60
2010,02,22,11,43,8.50
2010,02,22,11,44,8.50
2010,02,22,11,45,8.60
2010,02,22,11,46,8.60
2010,02,22,11,47,8.70
2010,02,22,11,48,8.70
2010,02,22,11,49,8.70
2010,02,22,11,50,8.70
2010,02,22,11,51,8.80
2010,02,22,11,52,8.90
2010,02,22,11,53,8.80
2010,02,22,11,54,8.80
2010,02,22,11,55,8.80
2010,02,22,11,56,8.80
2010,02,22,11,57,8.80
2010,02,22,11,58,8.90
2010,02,22,11,59,9.00
2010,02,22,12,00,9.10
2010,02,22,12,01,9.10
2010,02,22,12,02,9.00
2010,02,22,12,03,8.90
2010,02,22,12,04,8.80
2010,02,22,12,05,8.80
2010,02,22,12,06,8.70
2010,02,22,12,07,8.70
2010,02,22,12,08,8.70
2010,02,22,12,09,8.70
2010,02,22,12,10,8.70
2010,02,22,12,11,8.70
2010,02,22,12,12,8.70
2010,02,22,12,13,8.70
2010,02,22,12,14,8.70
2010,02,22,12,15,8.70
2010,02,22,12,16,8.70
2010,02,22,12,17,8.70
2010,02,22,12,18,8.70
2010,02,22,12,19,8.60
2010,02,22,12,20,8.50
2010,02,22,12,21,8.50
2010,02,22,12,22,8.60
2010,02,22,12,23,8.60
2010,02,22,12,24,8.70
2010,02,22,12,25,8.80
2010,02,22,12,26,8.90
2010,02,22,12,27,9.00
2010,02,22,12,28,9.00
2010,02,22,12,29,9.00
2010,02,22,12,30,8.90
2010,02,22,12,31,8.80
2010,02,22,12,32,8.70
2010,02,22,12,33,8.70
2010,02,22,12,34,8.70
2010,02,22,12,35,8.70
2010,02,22,12,36,8.70
2010,02,22,12,37,8.70
2010,02,22,12,38,8.70
2010,02,22,12,39,8.70
2010,02,22,12,40,8.70
2010,02,22,12,41,8.60
2010,02,22,12,42,8.60
2010,02,22,12,43,8.60
2010,02,22,12,44,8.70
2010,02,22,12,45,8.80
2010,02,22,12,46,8.90
2010,02,22,12,47,8.90
2010,02,22,12,48,8.90
2010,02,22,12,49,8.90
2010,02,22,12,50,8.90
2010,02,22,12,51,9.00
2010,02,22,12,52,8.90
2010,02,22,12,53,8.90
2010,02,22,12,54,8.90
2010,02,22,12,55,8.90
2010,02,22,12,56,8.90
2010,02,22,12,57,8.90
2010,02,22,12,58,8.90
2010,02,22,12,59,9.00
2010,02,22,13,00,9.00
2010,02,22,13,01,9.00
2010,02,22,13,02,9.10
2010,02,22,13,03,9.20
2010,02,22,13,04,9.30
2010,02,22,13,05,9.40
2010,02,22,13,06,9.40
2010,02,22,13,07,9.30
2010,02,22,13,08,9.30
2010,02,22,13,09,9.20
2010,02,22,13,10,9.20
2010,02,22,13,11,9.20
2010,02,22,13,12,9.10
2010,02,22,13,13,9.10
2010,02,22,13,14,9.20
2010,02,22,13,15,9.30
2010,02,22,13,16,9.40
2010,02,22,13,17,9.50
2010,02,22,13,18,9.50
2010,02,22,13,19,9.60
2010,02,22,13,20,9.70
2010,02,22,13,21,9.70
2010,02,22,13,22,9.70
2010,02,22,13,23,9.80
2010,02,22,13,24,9.70
2010,02,22,13,25,9.70
2010,02,22,13,26,9.70
2010,02,22,13,27,9.70
2010,02,22,13,28,9.80
2010,02,22,13,29,9.70
2010,02,22,13,30,9.70
2010,02,22,13,31,9.70
2010,02,22,13,32,9.70
2010,02,22,13,33,9.70
2010,02,22,13,34,9.70
2010,02,22,13,35,9.70
2010,02,22,13,36,9.60
2010,02,22,13,37,9.60
2010,02,22,13,38,9.60
2010,02,22,13,39,9.60
2010,02,22,13,40,9.70
2010,02,22,13,41,9.70
2010,02,22,13,42,9.70
2010,02,22,13,43,9.70
2010,02,22,13,44,9.70
2010,02,22,13,45,9.70
2010,02,22,13,46,9.80
2010,02,22,13,47,9.80
2010,02,22,13,48,9.70
2010,02,22,13,49,9.70
2010,02,22,13,50,9.70
2010,02,22,13,51,9.70
2010,02,22,13,52,9.70
2010,02,22,13,53,9.70
2010,02,22,13,54,9.70
2010,02,22,13,55,9.70
2010,02,22,13,56,9.70
2010,02,22,13,57,9.80
2010,02,22,13,58,9.90
2010,02,22,13,59,9.90
2010,02,22,14,00,10.00
2010,02,22,14,01,10.10
2010,02,22,14,02,10.10
2010,02,22,14,03,10.20
2010,02,22,14,04,10.30
2010,02,22,14,05,10.30
2010,02,22,14,06,10.30
2010,02,22,14,07,10.20
2010,02,22,14,08,10.10
2010,02,22,14,09,10.10
2010,02,22,14,10,10.10
2010,02,22,14,11,10.10
2010,02,22,14,12,10.00
2010,02,22,14,13,9.90
2010,02,22,14,14,9.90
2010,02,22,14,15,9.90
2010,02,22,14,16,9.90
2010,02,22,14,17,9.90
2010,02,22,14,18,9.90
2010,02,22,14,19,9.90
2010,02,22,14,20,9.90
2010,02,22,14,21,10.00
2010,02,22,14,22,10.10
2010,02,22,14,23,10.10
2010,02,22,14,24,10.10
2010,02,22,14,25,10.10
2010,02,22,14,26,10.10
2010,02,22,14,27,10.10
2010,02,22,14,28,10.20
2010,02,22,14,29,10.20
2010,02,22,14,30,10.30
2010,02,22,14,31,10.40
2010,02,22,14,32,10.40
2010,02,22,14,33,10.40
2010,02,22,14,34,10.40
2010,02,22,14,35,10.40
2010,02,22,14,36,10.40
2010,02,22,14,37,10.40
2010,02,22,14,38,10.40
2010,02,22,14,39,10.40
2010,02,22,14,40,10.40
2010,02,22,14,41,10.40
2010,02,22,14,42,10.40
2010,02,22,14,43,10.50
2010,02,22,14,44,10.50
2010,02,22,14,45,10.60
2010,02,22,14,46,10.60
2010,02,22,14,47,10.60
2010,02,22,14,48,10.60
2010,02,22,14,49,10.60
2010,02,22,14,50,10.60
2010,02,22,14,51,10.60
2010,02,22,14,52,10.70
2010,02,22,14,53,10.70
2010,02,22,14,54,10.70
2010,02,22,14,55,10.80
2010,02,22,14,56,10.80
2010,02,22,14,57,10.80
2010,02,22,14,58,10.80
2010,02,22,14,59,10.80
2010,02,22,15,00,10.80
2010,02,22,15,01,10.70
2010,02,22,15,02,10.60
2010,02,22,15,03,10.60
2010,02,22,15,04,10.60
2010,02,22,15,05,10.60
2010,02,22,15,06,10.60
2010,02,22,15,07,10.60
2010,02,22,15,08,10.60
2010,02,22,15,09,10.60
2010,02,22,15,10,10.60
2010,02,22,15,11,10.60
2010,02,22,15,12,10.70
2010,02,22,15,13,10.70
2010,02,22,15,14,10.80
2010,02,22,15,15,10.90
2010,02,22,15,16,10.90
2010,02,22,15,17,11.00
2010,02,22,15,18,11.10
2010,02,22,15,19,11.10
2010,02,22,15,20,11.20
2010,02,22,15,21,11.10
2010,02,22,15,22,11.20
2010,02,22,15,23,11.20
2010,02,22,15,24,11.20
2010,02,22,15,25,11.20
2010,02,22,15,26,11.30
2010,02,22,15,27,11.40
2010,02,22,15,28,11.40
2010,02,22,15,29,11.40
2010,02,22,15,30,11.40
2010,02,22,15,31,11.40
2010,02,22,15,32,11.40
2010,02,22,15,33,11.30
2010,02,22,15,34,11.30
2010,02,22,15,35,11.20
2010,02,22,15,36,11.20
2010,02,22,15,37,11.20
2010,02,22,15,38,11.20
2010,02,22,15,39,11.20
2010,02,22,15,40,11.10
2010,02,22,15,41,11.00
2010,02,22,15,42,10.80
2010,02,22,15,43,10.80
2010,02,22,15,44,10.70
2010,02,22,15,45,10.70
2010,02,22,15,46,10.70
2010,02,22,15,47,10.70
2010,02,22,15,48,10.70
2010,02,22,15,49,10.60
2010,02,22,15,50,10.60
2010,02,22,15,51,10.40
2010,02,22,15,52,10.40
2010,02,22,15,53,10.40
2010,02,22,15,54,10.50
2010,02,22,15,55,10.60
2010,02,22,15,56,10.70
2010,02,22,15,57,10.80
2010,02,22,15,58,10.90
2010,02,22,15,59,11.10
2010,02,22,16,00,11.10
2010,02,22,16,01,11.20
2010,02,22,16,02,11.20
2010,02,22,16,03,11.30
2010,02,22,16,04,11.40
2010,02,22,16,05,11.40
2010,02,22,16,06,11.40
2010,02,22,16,07,11.50
2010,02,22,16,08,11.60
2010,02,22,16,09,11.70
2010,02,22,16,10,11.70
2010,02,22,16,11,11.80
2010,02,22,16,12,11.80
2010,02,22,16,13,11.70
2010,02,22,16,14,11.60
2010,02,22,16,15,11.60
2010,02,22,16,16,11.60
2010,02,22,16,17,11.60
2010,02,22,16,18,11.50
2010,02,22,16,19,11.40
2010,02,22,16,20,11.40
2010,02,22,16,21,11.40
2010,02,22,16,22,11.40
2010,02,22,16,23,11.40
2010,02,22,16,24,11.40
2010,02,22,16,25,11.40
2010,02,22,16,26,11.40
2010,02,22,16,27,11.40
2010,02,22,16,28,11.40
2010,02,22,16,29,11.30
2010,02,22,16,30,11.30
2010,02,22,16,31,11.30
2010,02,22,16,32,11.30
2010,02,22,16,33,11.20
2010,02,22,16,34,11.10
2010,02,22,16,35,11.00
2010,02,22,16,36,10.90
2010,02,22,16,37,10.80
2010,02,22,16,38,10.60
2010,02,22,16,39,10.60
2010,02,22,16,40,10.50
2010,02,22,16,41,10.50
2010,02,22,16,42,10.60
2010,02,22,16,43,10.50
2010,02,22,16,44,10.40
2010,02,22,16,45,10.40
2010,02,22,16,46,10.40
2010,02,22,16,47,10.40
2010,02,22,16,48,10.40
2010,02,22,16,49,10.40
2010,02,22,16,50,10.40
2010,02,22,16,51,10.40
2010,02,22,16,52,10.40
2010,02,22,16,53,10.40
2010,02,22,16,54,10.40
2010,02,22,16,55,10.40
2010,02,22,16,56,10.40
2010,02,22,16,57,10.40
2010,02,22,16,58,10.40
2010,02,22,16,59,10.40
2010,02,22,17,00,10.40
2010,02,22,17,01,10.40
2010,02,22,17,02,10.40
2010,02,22,17,03,10.40
2010,02,22,17,04,10.30
2010,02,22,17,05,10.20
2010,02,22,17,06,10.10
2010,02,22,17,07,10.10
2010,02,22,17,08,10.10
2010,02,22,17,09,10.10
2010,02,22,17,10,10.00
2010,02,22,17,11,9.90
2010,02,22,17,12,9.90
2010,02,22,17,13,9.90
2010,02,22,17,14,9.90
2010,02,22,17,15,9.80
2010,02,22,17,16,9.80
2010,02,22,17,17,9.80
2010,02,22,17,18,9.70
2010,02,22,17,19,9.70
2010,02,22,17,20,9.70
2010,02,22,17,21,9.70
2010,02,22,17,22,9.60
2010,02,22,17,23,9.60
2010,02,22,17,24,9.60
2010,02,22,17,25,9.50
2010,02,22,17,26,9.50
2010,02,22,17,27,9.50
2010,02,22,17,28,9.40
2010,02,22,17,29,9.40
2010,02,22,17,30,9.40
2010,02,22,17,31,9.30
2010,02,22,17,32,9.30
2010,02,22,17,33,9.30
2010,02,22,17,34,9.20
2010,02,22,17,35,9.20
2010,02,22,17,36,9.10
2010,02,22,17,37,9.10
2010,02,22,17,38,9.00
2010,02,22,17,39,9.00
2010,02,22,17,40,9.00
2010,02,22,17,41,8.90
2010,02,22,17,42,8.90
2010,02,22,17,43,8.80
2010,02,22,17,44,8.80
2010,02,22,17,45,8.80
2010,02,22,17,46,8.70
2010,02,22,17,47,8.70
2010,02,22,17,48,8.70
2010,02,22,17,49,8.60
2010,02,22,17,50,8.50
2010,02,22,17,51,8.40
2010,02,22,17,52,8.30
2010,02,22,17,53,8.20
2010,02,22,17,54,8.20
2010,02,22,17,55,8.10
2010,02,22,17,56,8.00
2010,02,22,17,57,8.00
2010,02,22,17,58,8.00